Retour au catalogue

COSMOS 886 DEB

ActifLEO
NORAD 9819·DEBRIS·🇷🇺 Russia

Lancé Dec 27, 1976 depuis Baikonur Cosmodrome

Loading…

Prochains Passages (prochaines 24 heures)

TLE

FraisSource: Space-Track

Époque: Sep 14, 2026, 07:25 UTC

1 09819U 76126AF  26257.30964526  .00002583  00000-0  39397-3 0  9998
2 09819  65.8829 222.4209 0404338 154.4193 207.7534 14.32976080448348

Suivez COSMOS 886 DEB en temps réel avec AllMySat

Download on the App Store